Weather History for Brooksville, FL

Change the Weather History Date:

Wednesday, January 1, 2014

  Actual Average Record
Temperature  
Mean Temperature 58 °F -  
Max Temperature 61 °F 67 °F 81 °F (2006)
Min Temperature 54 °F 42 °F 21 °F (2001)
Degree Days  
Heating Degree Days 8    
Growing Degree Days 8 (Base 50)    
Moisture  
Dew Point 57 °F    
Average Humidity 95    
Maximum Humidity 100    
Minimum Humidity 70    
Precipitation  
Precipitation 0.18 in - - ()
Sea Level Pressure  
Sea Level Pressure 30.21 in    
Wind  
Wind Speed 8 mph (NE)    
Max Wind Speed 13 mph    
Max Gust Speed 18 mph    
Visibility 8 miles    
Events Rain    
Averages and records for this station are not official NWS values.
T = Trace of Precipitation, MM = Missing Value Source: NWS Daily Summary

Daily Weather History Graph

Daily Weather History Graph

Search for Another Location

Airport:

Trip Planner

Search our weather history database for the weather conditions in past years. The results will help you decide how hot, cold, wet, or windy it might be!

Date:

Astronomy

Jan. 01, 2014 Rise Set
Actual Time 7:22 AM EST 5:44 PM EST
Civil Twilight 6:56 AM EST 6:10 PM EST
Nautical Twilight 6:27 AM EST 6:39 PM EST
Astronomical Twilight 5:58 AM EST 7:08 PM EST
Moon 7:16 AM EST (1/1) 6:21 PM EST (1/1)
Length of Visible Light 11h 14m
Length of Day
10h 22m
New Moon, 0% of the Moon is Illuminated
Jan 1
New Moon
Jan 7
First Quarter
Jan 15
Full
Jan 24
Last Quarter
Jan 30
New

Hourly Weather History & Observations

Time (EST) Temp. Dew Point Humidity Pressure Visibility Wind Dir Wind Speed Gust Speed Precip Events Conditions
12:53 AM 57.9 °F 48.0 °F 70% 30.28 in 10.0 mi NNE 5.8 mph - N/A   Overcast
1:53 AM 57.0 °F 51.1 °F 81% 30.27 in 10.0 mi NNE 5.8 mph - 0.00 in   Overcast
2:53 AM 57.0 °F 51.1 °F 81% 30.26 in 10.0 mi NE 6.9 mph - 0.00 in   Overcast
3:53 AM 55.9 °F 52.0 °F 87% 30.26 in 10.0 mi NE 6.9 mph - 0.01 in   Overcast
4:53 AM 55.0 °F 52.0 °F 89% 30.26 in 10.0 mi NNE 6.9 mph - 0.00 in Rain Light Rain
5:53 AM 54.0 °F 53.1 °F 97% 30.27 in 10.0 mi North 6.9 mph - 0.01 in Rain Light Rain
6:53 AM 55.0 °F 53.1 °F 93% 30.25 in 10.0 mi NE 10.4 mph - 0.00 in   Overcast
7:53 AM 55.9 °F 53.1 °F 90% 30.26 in 10.0 mi NE 9.2 mph - N/A   Overcast
8:53 AM 55.9 °F 54.0 °F 93% 30.27 in 10.0 mi NNE 5.8 mph - N/A   Unknown
9:53 AM 57.0 °F 55.0 °F 93% 30.27 in 7.0 mi NE 8.1 mph - 0.00 in Rain Light Rain
10:29 AM 57.9 °F 55.9 °F 93% 30.28 in 10.0 mi NNE 8.1 mph - 0.00 in   Overcast
10:51 AM 57.2 °F 55.4 °F 94% 30.29 in 10.0 mi NE 8.1 mph - 0.00 in   Overcast
10:53 AM 57.9 °F 55.9 °F 93% 30.29 in 10.0 mi NE 6.9 mph - 0.00 in   Overcast
11:15 AM 57.9 °F 57.0 °F 97% 30.28 in 9.0 mi NE 8.1 mph - N/A   Overcast
11:33 AM 57.9 °F 57.0 °F 97% 30.27 in 2.0 mi NNE 8.1 mph - 0.01 in Rain Light Rain
11:40 AM 57.9 °F 57.0 °F 97% 30.27 in 2.0 mi NNE 6.9 mph - 0.01 in Rain Light Rain
11:48 AM 57.2 °F 57.2 °F 100% 30.27 in 1.8 mi NNE 6.9 mph - 0.02 in Rain Light Rain
11:53 AM 57.9 °F 57.0 °F 97% 30.26 in 1.5 mi NNE 8.1 mph - 0.03 in Rain Rain
12:05 PM 57.9 °F 57.0 °F 97% 30.26 in 2.0 mi NNE 8.1 mph - 0.01 in Rain Light Rain
12:28 PM 59.0 °F 57.9 °F 96% 30.24 in 1.8 mi NE 8.1 mph - 0.04 in Rain Light Rain
12:37 PM 59.0 °F 59.0 °F 100% 30.23 in 2.5 mi NE 9.2 mph - 0.05 in Rain Light Rain
12:53 PM 59.0 °F 59.0 °F 100% 30.22 in 3.0 mi NNE 9.2 mph - 0.05 in Rain Light Rain
1:20 PM 60.1 °F 59.0 °F 96% 30.20 in 7.0 mi NNE 8.1 mph - 0.01 in   Overcast
1:53 PM 60.1 °F 59.0 °F 96% 30.18 in 4.0 mi NE 9.2 mph - 0.01 in Rain Light Rain
2:09 PM 60.1 °F 60.1 °F 100% 30.18 in 2.0 mi NNE 5.8 mph - 0.02 in Rain Light Rain
2:24 PM 60.1 °F 59.0 °F 96% 30.18 in 3.0 mi NE 9.2 mph - 0.03 in Rain Light Rain
2:32 PM 60.1 °F 59.0 °F 96% 30.17 in 2.0 mi NE 8.1 mph - 0.04 in Rain Light Rain
2:50 PM 60.8 °F 59.0 °F 94% 30.17 in 5.0 mi NE 10.4 mph - 0.04 in Rain Light Rain
2:53 PM 60.1 °F 60.1 °F 100% 30.17 in 7.0 mi NE 10.4 mph - 0.05 in Rain Light Rain
3:53 PM 60.1 °F 60.1 °F 100% 30.16 in 10.0 mi NE 9.2 mph - 0.02 in   Overcast
4:04 PM 60.1 °F 60.1 °F 100% 30.16 in 10.0 mi NE 8.1 mph - N/A   Overcast
4:18 PM 61.0 °F 60.1 °F 97% 30.15 in 10.0 mi NE 8.1 mph - N/A   Overcast
4:53 PM 61.0 °F 60.1 °F 97% 30.14 in 10.0 mi NE 10.4 mph - N/A   Overcast
5:28 PM 61.0 °F 60.1 °F 97% 30.14 in 10.0 mi ENE 10.4 mph - N/A   Overcast
5:40 PM 61.0 °F 60.1 °F 97% 30.14 in 10.0 mi NE 12.7 mph - N/A   Overcast
5:53 PM 61.0 °F 60.1 °F 97% 30.15 in 10.0 mi NE 8.1 mph - N/A   Overcast
6:02 PM 61.0 °F 59.0 °F 93% 30.15 in 10.0 mi NE 8.1 mph - N/A   Overcast
6:53 PM 60.1 °F 59.0 °F 96% 30.14 in 10.0 mi ENE 10.4 mph - N/A   Overcast
7:11 PM 60.1 °F 59.0 °F 96% 30.14 in 10.0 mi ENE 8.1 mph - N/A   Overcast
7:53 PM 60.1 °F 59.0 °F 96% 30.14 in 10.0 mi ENE 10.4 mph - N/A   Overcast
8:53 PM 60.1 °F 60.1 °F 100% 30.13 in 10.0 mi ENE 9.2 mph 18.4 mph N/A   Overcast
9:53 PM 61.0 °F 60.1 °F 97% 30.12 in 10.0 mi ENE 8.1 mph - N/A   Overcast
10:53 PM 61.0 °F 60.1 °F 97% 30.11 in 10.0 mi ENE 8.1 mph - N/A   Overcast
11:53 PM 61.0 °F 60.1 °F 97% 30.08 in 10.0 mi East 6.9 mph - N/A   Overcast